Regional Weather Roundup
Issued by NWS Cleveland, OH

Home | Current Version | Previous Version | Text Only | Print | Product List | Glossary On
Versions: 1 2 3 4 5 6 7 8 9 10 11 12 13 14 15 16 17 18 19 20 21 22 23 24 25 26 27 28 29 30 31 32 33 34 35 36 37 38 39 40 41 42 43 44 45 46 47 48 49 50
000
ASUS41 KCLE 300510
RWRCLE
OHIO REGIONAL WEATHER ROUNDUP
NATIONAL WEATHER SERVICE WILMINGTON, OH
100 AM EDT MON MAR 30 2015

NOTE: "FAIR" INDICATES FEW OR NO CLOUDS BELOW 12,000 FEET WITH NO
SIGNIFICANT WEATHER AND/OR OBSTRUCTIONS TO VISIBILITY.

OHZ001>008-015>018-024>027-034-035-043-044-300600-
   NORTHWEST OHIO

CITY           SKY/WX    TMP DP  RH WIND       PRES   REMARKS
DEFIANCE       CLOUDY    45  35  68 W13G25    29.85R
FINDLAY        CLOUDY    45  36  70 SW18G36   29.82F
TOLEDO EXPRESS   N/A    N/A N/A N/A MISG      29.80S
TOLEDO EXEC    PTCLDY    42  34  73 W15G25    29.81S
LIMA           CLOUDY    44  36  73 SW20      29.85F
$$

OHZ009>014-019>023-028>033-038-089-300600-
   NORTHEAST OHIO

CITY           SKY/WX    TMP DP  RH WIND       PRES   REMARKS
CLE-HOPKINS    LGT RAIN  40  34  79 S15       29.83F
CLE-LAKEFRONT  LGT RAIN  41  32  70 S18G33    29.80F
CUY CO. ARPT   NOT AVBL
LORAIN-ELYRIA  CLOUDY    41  35  79 SW20G29   29.81F
ASHTABULA      CLOUDY    38  31  76 SW17G25   29.81F
AKRON-CANTON   CLOUDY    39  32  76 SW20G30   29.86F
WOOSTER        CLOUDY    38  34  85 SW15      29.85F
MANSFIELD      LGT RAIN  42  35  76 SW26G33   29.83F
YOUNGSTOWN     CLOUDY    36  32  85 S14       29.84F
$$

OHZ042-051>053-060>062-070>072-077>081-300600-
  SOUTHWEST OHIO

CITY           SKY/WX    TMP DP  RH WIND       PRES   REMARKS
CINC-COVINGTON CLOUDY    46  39  76 SW12      29.96F
CINC-LUNKEN    CLOUDY    43  39  86 S9        29.98F
HAMILTON       CLOUDY    46  39  76 W8        29.96F
DAYTON         LGT RAIN  44  37  76 SW17      29.92F
WRIGHT-PAT AFB LGT RAIN  45  37  73 SW17G28   29.91F
DAYTON GENERAL CLOUDY    46  37  71 SW13G21   29.93F
WILMINGTON     CLOUDY    42  35  76 SW12      29.93F
$$

OHZ036-037-039>041-045>050-054>059-063>069-073>076-082>088-300600-
  CENTRAL AND SOUTHEAST OHIO

CITY           SKY/WX    TMP DP  RH WIND       PRES   REMARKS
COLUMBUS       CLOUDY    43  37  79 SW10      29.92F
OSU AIRPORT    CLOUDY    43  35  73 SW14      29.90F
BOLTON FIELD   CLOUDY   N/A N/A N/A SW14G21   29.91F
RICKENBACK AFB CLOUDY    41  35  77 S12       29.92F
NEWARK         CLOUDY    42  36  79 S15       29.90F
MARION         LGT RAIN  40  33  76 SW15      29.86F
LANCASTER      CLOUDY    43  34  70 S9        29.94F
ZANESVILLE     CLOUDY    40  33  76 SW12      29.94F
NEW PHILLY     CLOUDY    41  33  73 S12       29.92F
$$



USA.gov is the U.S. government's official web portal to all federal, state and local government web resources and services.